QPF
0.00 0.00 0.00 0.00 0.00 0.00 0.00 0.00 0.00 0.00 0.00 0.00 0.00 0.00 0.00 0.00 0.00 0.00 0.00 0.01 0.02 0.02 0.01 0.01 0.03 0.03 0.02 0.02 0.03 0.03 0.05 0.07 0.04 0.03 0.03 0.02 0.02 0.02 0.02 0.03 0.05 0.06 0.05 0.04
0.00 0.00 0.00 0.00 0.00 0.00 0.00 0.00 0.00 0.00 0.00 0.00 0.00 0.00 0.00 0.00 0.00 0.00 0.00 0.00 0.01 0.01 0.01 0.01 0.02 0.03 0.02 0.01 0.03 0.04 0.05 0.06 0.05 0.04 0.04 0.04 0.03 0.02 0.02 0.03 0.03 0.05 0.07 0.08
0.00 0.00 0.00 0.00 0.00 0.00 0.00 0.00 0.00 0.00 0.00 0.00 0.01 0.01 0.00 0.00 0.00 0.00 0.00 0.00 0.00 0.01 0.01 0.00 0.01 0.01 0.00 0.01 0.03 0.03 0.04 0.05 0.05 0.05 0.06 0.07 0.05 0.03 0.03 0.03 0.03 0.05 0.06 0.08
0.00 0.00 0.00 0.00 0.00 0.00 0.00 0.00 0.00 0.00 0.00 0.00 0.00 0.00 0.00 0.00 0.00 0.00 0.00 0.00 0.00 0.00 0.00 0.00 0.01 0.00 0.00 0.01 0.02 0.04 0.05 0.06 0.04 0.04 0.05 0.05 0.04 0.04 0.04 0.05 0.06 0.09 0.08 0.09
0.00 0.00 0.00 0.00 0.00 0.00 0.00 0.00 0.00 0.00 0.00 0.00 0.00 0.00 0.00 0.00 0.00 0.00 0.00 0.00 0.00 0.00 0.00 0.00 0.01 0.00 0.01 0.02 0.04 0.04 0.05 0.05 0.05 0.05 0.04 0.03 0.03 0.03 0.04 0.04 0.06 0.09 0.09 0.08
0.00 0.00 0.00 0.00 0.00 0.00 0.00 0.00 0.00 0.00 0.00 0.00 0.00 0.00 0.00 0.00 0.00 0.00 0.00 0.00 0.00 0.00 0.00 0.01 0.01 0.01 0.02 0.04 0.05 0.06 0.03 0.03 0.04 0.06 0.06 0.05 0.04 0.04 0.04 0.05 0.06 0.08 0.09 0.07
0.00 0.00 0.00 0.00 0.00 0.00 0.00 0.00 0.00 0.00 0.00 0.00 0.00 0.00 0.00 0.00 0.00 0.00 0.00 0.00 0.00 0.00 0.00 0.01 0.01 0.01 0.03 0.04 0.05 0.05 0.03 0.04 0.06 0.06 0.05 0.05 0.05 0.06 0.07 0.07 0.05 0.06 0.07 0.07
0.00 0.00 0.00 0.00 0.00 0.00 0.00 0.00 0.00 0.00 0.00 0.00 0.00 0.00 0.00 0.00 0.00 0.00 0.00 0.00 0.00 0.00 0.01 0.01 0.01 0.01 0.02 0.03 0.02 0.03 0.03 0.04 0.05 0.04 0.04 0.05 0.06 0.08 0.08 0.07 0.05 0.05 0.08 0.09
0.00 0.00 0.00 0.00 0.00 0.00 0.00 0.00 0.00 0.00 0.00 0.00 0.00 0.00 0.00 0.00 0.00 0.00 0.00 0.00 0.00 0.00 0.01 0.01 0.01 0.01 0.01 0.02 0.02 0.01 0.02 0.03 0.04 0.04 0.05 0.07 0.08 0.07 0.05 0.05 0.05 0.05 0.07 0.08
0.00 0.00 0.00 0.00 0.00 0.00 0.00 0.00 0.00 0.00 0.00 0.00 0.00 0.00 0.00 0.00 0.00 0.00 0.00 0.00 0.00 0.00 0.00 0.01 0.01 0.01 0.02 0.02 0.01 0.01 0.02 0.03 0.04 0.05 0.06 0.06 0.07 0.05 0.05 0.06 0.05 0.05 0.06 0.08
0.00 0.00 0.00 0.00 0.00 0.00 0.00 0.00 0.00 0.00 0.00 0.00 0.00 0.00 0.00 0.00 0.00 0.00 0.00 0.00 0.00 0.00 0.00 0.01 0.01 0.01 0.02 0.02 0.02 0.02 0.04 0.04 0.05 0.06 0.06 0.05 0.05 0.05 0.06 0.05 0.05 0.06 0.06 0.08
0.00 0.00 0.00 0.00 0.00 0.00 0.00 0.00 0.00 0.00 0.00 0.00 0.00 0.00 0.00 0.01 0.00 0.00 0.00 0.00 0.00 0.01 0.01 0.02 0.01 0.01 0.01 0.02 0.03 0.06 0.05 0.05 0.07 0.05 0.04 0.04 0.05 0.06 0.06 0.05 0.05 0.06 0.06 0.06
0.00 0.00 0.00 0.00 0.00 0.00 0.00 0.00 0.00 0.00 0.00 0.00 0.00 0.00 0.01 0.01 0.01 0.01 0.00 0.00 0.00 0.01 0.01 0.01 0.01 0.01 0.02 0.02 0.04 0.05 0.04 0.05 0.05 0.05 0.04 0.04 0.06 0.07 0.07 0.05 0.06 0.06 0.06 0.06
0.00 0.00 0.00 0.00 0.00 0.00 0.00 0.00 0.00 0.00 0.00 0.00 0.00 0.00 0.01 0.01 0.01 0.01 0.01 0.01 0.01 0.01 0.01 0.01 0.02 0.02 0.02 0.02 0.03 0.02 0.02 0.03 0.03 0.03 0.04 0.03 0.04 0.05 0.07 0.07 0.06 0.06 0.07 0.07
0.00 0.00 0.00 0.00 0.00 0.00 0.00 0.00 0.00 0.00 0.00 0.00 0.00 0.00 0.01 0.01 0.01 0.00 0.01 0.01 0.01 0.01 0.01 0.03 0.04 0.03 0.02 0.02 0.02 0.02 0.03 0.03 0.03 0.03 0.03 0.04 0.05 0.07 0.08 0.11 0.11 0.10 0.09 0.10
0.00 0.00 0.00 0.00 0.00 0.00 0.00 0.00 0.00 0.00 0.00 0.00 0.00 0.00 0.00 0.00 0.00 0.00 0.00 0.00 0.00 0.01 0.01 0.01 0.02 0.02 0.01 0.01 0.01 0.01 0.02 0.02 0.02 0.03 0.04 0.07 0.08 0.11 0.11 0.10 0.13 0.16 0.14 0.12
0.00 0.00 0.00 0.00 0.00 0.00 0.00 0.00 0.00 0.00 0.00 0.00 0.00 0.00 0.00 0.00 0.00 0.00 0.00 0.00 0.00 0.01 0.00 0.00 0.01 0.01 0.01 0.01 0.01 0.01 0.01 0.02 0.03 0.04 0.10 0.13 0.11 0.09 0.10 0.09 0.08 0.10 0.12 0.11
0.00 0.00 0.00 0.00 0.00 0.00 0.00 0.00 0.00 0.00 0.00 0.00 0.00 0.00 0.00 0.00 0.00 0.00 0.00 0.00 0.01 0.00 0.00 0.01 0.01 0.02 0.02 0.02 0.02 0.02 0.02 0.02 0.04 0.09 0.18 0.16 0.14 0.11 0.09 0.08 0.08 0.08 0.09 0.09
0.00 0.00 0.00 0.00 0.00 0.00 0.00 0.00 0.00 0.00 0.00 0.00 0.00 0.01 0.01 0.00 0.00 0.01 0.01 0.02 0.01 0.01 0.01 0.02 0.04 0.03 0.02 0.02 0.03 0.03 0.04 0.05 0.07 0.09 0.16 0.21 0.23 0.17 0.10 0.07 0.06 0.07 0.09 0.10
0.00 0.00 0.00 0.00 0.00 0.00 0.00 0.00 0.00 0.00 0.01 0.01 0.01 0.01 0.01 0.01 0.00 0.01 0.01 0.01 0.01 0.00 0.01 0.01 0.02 0.02 0.03 0.04 0.04 0.03 0.04 0.06 0.07 0.08 0.08 0.07 0.08 0.06 0.05 0.06 0.06 0.07 0.10 0.12
0.00 0.00 0.00 0.00 0.00 0.01 0.01 0.01 0.02 0.02 0.01 0.02 0.01 0.01 0.01 0.01 0.01 0.01 0.01 0.01 0.00 0.01 0.01 0.01 0.02 0.01 0.02 0.03 0.03 0.04 0.05 0.06 0.08 0.09 0.06 0.04 0.03 0.03 0.03 0.04 0.04 0.04 0.04 0.06
0.00 0.00 0.00 0.00 0.00 0.01 0.01 0.02 0.02 0.02 0.02 0.02 0.02 0.02 0.01 0.02 0.02 0.02 0.01 0.01 0.01 0.01 0.02 0.02 0.02 0.03 0.03 0.04 0.03 0.04 0.06 0.07 0.07 0.05 0.03 0.03 0.02 0.03 0.04 0.04 0.03 0.03 0.03 0.02
0.01 0.00 0.00 0.00 0.00 0.00 0.01 0.01 0.02 0.03 0.02 0.02 0.03 0.04 0.03 0.03 0.03 0.03 0.02 0.02 0.01 0.02 0.02 0.02 0.02 0.03 0.03 0.04 0.04 0.05 0.06 0.05 0.04 0.03 0.03 0.03 0.03 0.02 0.01 0.02 0.02 0.02 0.02 0.01
0.01 0.01 0.00 0.00 0.01 0.01 0.01 0.02 0.02 0.02 0.02 0.03 0.04 0.06 0.05 0.04 0.04 0.03 0.02 0.02 0.02 0.02 0.03 0.03 0.03 0.03 0.03 0.04 0.04 0.04 0.05 0.05 0.04 0.02 0.02 0.02 0.02 0.01 0.01 0.01 0.01 0.01 0.01 0.01
0.01 0.01 0.01 0.01 0.01 0.01 0.01 0.01 0.02 0.02 0.02 0.03 0.04 0.05 0.07 0.08 0.06 0.05 0.04 0.03 0.03 0.03 0.03 0.04 0.04 0.04 0.03 0.03 0.03 0.03 0.03 0.03 0.02 0.01 0.01 0.01 0.01 0.01 0.01 0.01 0.01 0.01 0.01 0.01
0.01 0.01 0.01 0.01 0.01 0.01 0.01 0.01 0.02 0.03 0.03 0.04 0.06 0.06 0.07 0.07 0.07 0.06 0.05 0.04 0.04 0.04 0.04 0.04 0.04 0.04 0.03 0.03 0.03 0.02 0.02 0.02 0.02 0.01 0.01 0.01 0.01 0.01 0.00 0.00 0.00 0.01 0.01 0.01
MSLP
1013.90 1014.74 1015.42 1015.92 1016.24 1016.40 1016.46 1016.43 1016.36 1016.25 1016.10 1015.91 1015.65 1015.33 1014.96 1014.57 1014.20 1013.89 1013.66 1013.55 1013.54 1013.65 1013.83 1014.05 1014.27 1014.49 1014.67 1014.82 1014.95 1015.08 1015.22 1015.39 1015.59 1015.81 1016.03 1016.25 1016.44 1016.57 1016.66 1016.68 1016.67 1016.62 1016.56 1016.51
1014.66 1015.32 1015.81 1016.13 1016.33 1016.44 1016.52 1016.59 1016.65 1016.69 1016.67 1016.56 1016.32 1015.95 1015.47 1014.94 1014.41 1013.95 1013.62 1013.45 1013.46 1013.61 1013.87 1014.17 1014.47 1014.72 1014.91 1015.03 1015.11 1015.18 1015.27 1015.40 1015.58 1015.81 1016.05 1016.30 1016.50 1016.64 1016.71 1016.70 1016.63 1016.53 1016.42 1016.33
1015.22 1015.67 1015.94 1016.09 1016.18 1016.27 1016.42 1016.63 1016.88 1017.11 1017.27 1017.27 1017.07 1016.66 1016.09 1015.40 1014.70 1014.09 1013.65 1013.43 1013.43 1013.62 1013.95 1014.35 1014.72 1015.02 1015.21 1015.31 1015.35 1015.35 1015.38 1015.46 1015.62 1015.84 1016.10 1016.36 1016.58 1016.73 1016.79 1016.77 1016.68 1016.54 1016.41 1016.30
1015.55 1015.78 1015.86 1015.87 1015.90 1016.02 1016.28 1016.68 1017.17 1017.63 1017.98 1018.12 1017.97 1017.54 1016.86 1016.02 1015.15 1014.38 1013.81 1013.51 1013.50 1013.72 1014.12 1014.58 1015.02 1015.37 1015.58 1015.67 1015.65 1015.60 1015.57 1015.60 1015.72 1015.92 1016.18 1016.46 1016.70 1016.87 1016.94 1016.92 1016.82 1016.68 1016.54 1016.41
1015.68 1015.72 1015.65 1015.57 1015.60 1015.81 1016.24 1016.87 1017.60 1018.32 1018.87 1019.13 1019.04 1018.57 1017.79 1016.79 1015.76 1014.82 1014.12 1013.74 1013.69 1013.93 1014.37 1014.90 1015.40 1015.79 1016.02 1016.09 1016.04 1015.93 1015.84 1015.82 1015.90 1016.08 1016.34 1016.62 1016.88 1017.07 1017.16 1017.16 1017.08 1016.95 1016.81 1016.69
1015.63 1015.54 1015.39 1015.29 1015.38 1015.73 1016.36 1017.22 1018.21 1019.15 1019.88 1020.26 1020.20 1019.69 1018.80 1017.66 1016.46 1015.38 1014.56 1014.09 1014.00 1014.24 1014.72 1015.29 1015.84 1016.27 1016.52 1016.58 1016.50 1016.35 1016.21 1016.14 1016.18 1016.34 1016.59 1016.87 1017.15 1017.36 1017.48 1017.50 1017.44 1017.32 1017.20 1017.09
1015.46 1015.30 1015.13 1015.09 1015.28 1015.80 1016.63 1017.72 1018.92 1020.04 1020.90 1021.35 1021.30 1020.74 1019.76 1018.50 1017.17 1015.96 1015.04 1014.51 1014.39 1014.63 1015.13 1015.75 1016.34 1016.79 1017.06 1017.12 1017.03 1016.85 1016.67 1016.56 1016.58 1016.71 1016.95 1017.24 1017.52 1017.75 1017.89 1017.93 1017.88 1017.79 1017.67 1017.57
1015.20 1015.04 1014.92 1014.97 1015.31 1015.99 1017.00 1018.26 1019.60 1020.84 1021.76 1022.24 1022.16 1021.55 1020.49 1019.15 1017.73 1016.46 1015.48 1014.92 1014.79 1015.05 1015.57 1016.22 1016.84 1017.33 1017.61 1017.69 1017.59 1017.41 1017.21 1017.09 1017.08 1017.21 1017.44 1017.72 1018.01 1018.25 1018.39 1018.44 1018.41 1018.31 1018.20 1018.10
1014.90 1014.78 1014.75 1014.92 1015.40 1016.22 1017.36 1018.71 1020.12 1021.38 1022.30 1022.74 1022.62 1021.96 1020.85 1019.48 1018.04 1016.76 1015.79 1015.25 1015.15 1015.43 1015.99 1016.67 1017.32 1017.84 1018.15 1018.24 1018.17 1017.99 1017.81 1017.69 1017.68 1017.80 1018.03 1018.32 1018.60 1018.83 1018.98 1019.02 1018.98 1018.88 1018.76 1018.64
1014.56 1014.52 1014.61 1014.91 1015.50 1016.42 1017.61 1018.98 1020.35 1021.54 1022.38 1022.74 1022.56 1021.86 1020.75 1019.40 1018.01 1016.80 1015.91 1015.44 1015.40 1015.73 1016.33 1017.04 1017.72 1018.27 1018.61 1018.74 1018.70 1018.57 1018.42 1018.33 1018.34 1018.48 1018.71 1018.99 1019.27 1019.50 1019.63 1019.65 1019.59 1019.47 1019.33 1019.19
1014.19 1014.26 1014.47 1014.89 1015.57 1016.52 1017.69 1018.97 1020.22 1021.27 1021.96 1022.21 1021.95 1021.24 1020.17 1018.90 1017.64 1016.57 1015.81 1015.46 1015.51 1015.92 1016.56 1017.30 1018.01 1018.58 1018.96 1019.14 1019.16 1019.08 1018.99 1018.95 1019.01 1019.18 1019.43 1019.72 1019.99 1020.20 1020.31 1020.32 1020.24 1020.09 1019.92 1019.75
1013.80 1014.00 1014.33 1014.85 1015.58 1016.50 1017.58 1018.71 1019.76 1020.61 1021.12 1021.23 1020.91 1020.20 1019.21 1018.09 1017.00 1016.11 1015.54 1015.33 1015.50 1015.97 1016.66 1017.42 1018.15 1018.75 1019.16 1019.40 1019.49 1019.49 1019.49 1019.52 1019.64 1019.85 1020.13 1020.43 1020.71 1020.91 1021.01 1021.00 1020.90 1020.73 1020.54 1020.35
1013.44 1013.77 1014.21 1014.80 1015.53 1016.39 1017.32 1018.24 1019.06 1019.67 1019.98 1019.95 1019.57 1018.90 1018.02 1017.07 1016.19 1015.52 1015.14 1015.09 1015.36 1015.91 1016.62 1017.40 1018.13 1018.75 1019.21 1019.51 1019.68 1019.78 1019.87 1020.00 1020.20 1020.46 1020.77 1021.10 1021.38 1021.59 1021.69 1021.68 1021.57 1021.40 1021.20 1021.00
1013.12 1013.58 1014.13 1014.77 1015.47 1016.22 1016.98 1017.67 1018.22 1018.59 1018.70 1018.54 1018.12 1017.49 1016.74 1015.98 1015.32 1014.86 1014.67 1014.76 1015.13 1015.72 1016.45 1017.23 1017.96 1018.60 1019.10 1019.47 1019.74 1019.94 1020.14 1020.37 1020.64 1020.97 1021.32 1021.67 1021.98 1022.20 1022.32 1022.33 1022.25 1022.10 1021.91 1021.73
1012.91 1013.49 1014.11 1014.77 1015.42 1016.05 1016.61 1017.06 1017.36 1017.48 1017.41 1017.13 1016.69 1016.12 1015.50 1014.92 1014.46 1014.19 1014.15 1014.37 1014.80 1015.42 1016.15 1016.91 1017.64 1018.29 1018.84 1019.29 1019.66 1019.98 1020.29 1020.62 1020.98 1021.37 1021.77 1022.15 1022.48 1022.73 1022.88 1022.94 1022.90 1022.80 1022.67 1022.52
1012.83 1013.50 1014.18 1014.82 1015.40 1015.89 1016.25 1016.46 1016.53 1016.43 1016.19 1015.82 1015.35 1014.84 1014.34 1013.92 1013.63 1013.52 1013.61 1013.90 1014.38 1015.00 1015.72 1016.46 1017.20 1017.87 1018.48 1019.02 1019.49 1019.93 1020.35 1020.78 1021.22 1021.67 1022.10 1022.51 1022.87 1023.16 1023.36 1023.48 1023.52 1023.50 1023.43 1023.34
1012.90 1013.62 1014.31 1014.92 1015.40 1015.73 1015.89 1015.89 1015.74 1015.45 1015.07 1014.61 1014.14 1013.68 1013.27 1012.98 1012.82 1012.83 1013.01 1013.36 1013.86 1014.47 1015.17 1015.91 1016.65 1017.37 1018.05 1018.68 1019.27 1019.83 1020.36 1020.88 1021.39 1021.88 1022.35 1022.79 1023.17 1023.50 1023.76 1023.95 1024.08 1024.15 1024.18 1024.17
1013.08 1013.81 1014.47 1015.00 1015.36 1015.52 1015.50 1015.30 1014.96 1014.51 1014.01 1013.49 1013.00 1012.58 1012.26 1012.06 1012.00 1012.09 1012.34 1012.72 1013.23 1013.85 1014.54 1015.29 1016.06 1016.83 1017.60 1018.33 1019.04 1019.71 1020.35 1020.95 1021.52 1022.05 1022.54 1022.99 1023.40 1023.76 1024.07 1024.34 1024.56 1024.73 1024.86 1024.93
1013.34 1014.02 1014.60 1015.02 1015.23 1015.23 1015.03 1014.65 1014.14 1013.57 1012.97 1012.41 1011.91 1011.52 1011.26 1011.13 1011.15 1011.31 1011.60 1012.01 1012.54 1013.16 1013.87 1014.65 1015.47 1016.32 1017.17 1018.02 1018.84 1019.62 1020.35 1021.02 1021.63 1022.19 1022.69 1023.15 1023.57 1023.95 1024.31 1024.65 1024.95 1025.22 1025.44 1025.60
1013.58 1014.17 1014.63 1014.91 1014.96 1014.80 1014.43 1013.90 1013.27 1012.59 1011.93 1011.34 1010.85 1010.49 1010.27 1010.21 1010.29 1010.50 1010.83 1011.28 1011.84 1012.49 1013.23 1014.05 1014.94 1015.87 1016.82 1017.77 1018.69 1019.57 1020.38 1021.11 1021.75 1022.33 1022.83 1023.29 1023.71 1024.12 1024.51 1024.90 1025.27 1025.61 1025.91 1026.15
1013.74 1014.21 1014.52 1014.64 1014.54 1014.22 1013.72 1013.07 1012.35 1011.60 1010.91 1010.30 1009.83 1009.51 1009.35 1009.34 1009.48 1009.74 1010.13 1010.62 1011.21 1011.91 1012.70 1013.57 1014.53 1015.53 1016.57 1017.61 1018.62 1019.57 1020.44 1021.21 1021.88 1022.47 1022.98 1023.43 1023.86 1024.27 1024.68 1025.10 1025.52 1025.91 1026.27 1026.56
1013.76 1014.08 1014.24 1014.21 1013.97 1013.53 1012.92 1012.20 1011.42 1010.66 1009.96 1009.37 1008.94 1008.67 1008.56 1008.62 1008.81 1009.14 1009.57 1010.12 1010.76 1011.50 1012.34 1013.27 1014.28 1015.35 1016.44 1017.54 1018.61 1019.61 1020.52 1021.32 1022.01 1022.61 1023.12 1023.58 1024.01 1024.43 1024.85 1025.28 1025.72 1026.14 1026.52 1026.85
1013.61 1013.79 1013.81 1013.65 1013.30 1012.78 1012.12 1011.37 1010.58 1009.83 1009.17 1008.63 1008.25 1008.04 1008.00 1008.12 1008.38 1008.76 1009.26 1009.85 1010.54 1011.33 1012.21 1013.17 1014.21 1015.31 1016.44 1017.56 1018.65 1019.67 1020.60 1021.42 1022.13 1022.74 1023.27 1023.74 1024.18 1024.60 1025.03 1025.47 1025.91 1026.33 1026.72 1027.04
1013.30 1013.35 1013.27 1013.02 1012.61 1012.05 1011.39 1010.65 1009.91 1009.22 1008.61 1008.15 1007.84 1007.70 1007.73 1007.91 1008.23 1008.67 1009.22 1009.86 1010.59 1011.40 1012.30 1013.28 1014.32 1015.41 1016.52 1017.64 1018.71 1019.73 1020.66 1021.49 1022.22 1022.85 1023.41 1023.90 1024.36 1024.80 1025.24 1025.67 1026.10 1026.50 1026.87 1027.18
1012.87 1012.83 1012.67 1012.38 1011.96 1011.42 1010.79 1010.13 1009.46 1008.85 1008.34 1007.96 1007.73 1007.67 1007.76 1008.01 1008.38 1008.87 1009.45 1010.13 1010.88 1011.70 1012.59 1013.54 1014.55 1015.60 1016.67 1017.74 1018.78 1019.77 1020.68 1021.52 1022.26 1022.93 1023.52 1024.06 1024.56 1025.02 1025.47 1025.90 1026.31 1026.69 1027.02 1027.29
1012.40 1012.29 1012.10 1011.80 1011.40 1010.92 1010.38 1009.81 1009.26 1008.76 1008.35 1008.06 1007.91 1007.91 1008.06 1008.35 1008.77 1009.29 1009.90 1010.58 1011.33 1012.14 1013.00 1013.91 1014.86 1015.84 1016.83 1017.83 1018.81 1019.76 1020.65 1021.49 1022.26 1022.97 1023.61 1024.21 1024.75 1025.26 1025.73 1026.16 1026.55 1026.89 1027.18 1027.41
Thickness
5797 5784 5776 5783 5790 5790 5788 5783 5780 5790 5806 5802 5797 5796 5801 5807 5806 5803 5801 5801 5801 5802 5804 5802 5799 5796 5791 5786 5781 5778 5774 5770 5765 5760 5756 5753 5751 5751 5751 5750 5748 5747 5746 5744
5775 5774 5788 5792 5792 5791 5787 5781 5781 5789 5802 5799 5792 5793 5800 5805 5806 5808 5806 5804 5804 5803 5802 5802 5800 5798 5793 5788 5784 5780 5776 5772 5769 5765 5761 5758 5755 5753 5752 5751 5750 5748 5746 5745
5770 5779 5791 5789 5785 5782 5781 5779 5781 5783 5791 5792 5789 5782 5792 5801 5806 5809 5810 5810 5809 5807 5804 5803 5801 5799 5796 5791 5787 5784 5779 5775 5771 5768 5764 5760 5756 5754 5752 5750 5749 5749 5747 5745
5770 5783 5786 5783 5781 5781 5772 5788 5788 5783 5772 5762 5775 5755 5780 5790 5796 5803 5808 5810 5811 5812 5810 5806 5804 5800 5798 5796 5792 5787 5782 5777 5774 5770 5766 5761 5756 5753 5753 5752 5750 5749 5748 5747
5765 5778 5780 5777 5783 5786 5782 5791 5785 5779 5768 5757 5762 5754 5767 5785 5787 5799 5809 5814 5816 5816 5813 5811 5809 5806 5802 5798 5794 5789 5784 5779 5775 5771 5768 5764 5760 5757 5755 5753 5750 5749 5748 5747
5767 5781 5785 5785 5792 5792 5788 5777 5766 5754 5748 5737 5754 5750 5756 5774 5790 5802 5813 5818 5820 5820 5818 5815 5813 5808 5803 5799 5795 5789 5784 5780 5777 5773 5770 5766 5762 5759 5755 5752 5750 5749 5748 5747
5756 5770 5784 5790 5780 5781 5776 5752 5729 5727 5718 5726 5750 5750 5758 5792 5803 5810 5815 5819 5824 5823 5820 5816 5812 5807 5803 5798 5795 5791 5785 5781 5778 5774 5771 5769 5765 5761 5757 5754 5751 5749 5748 5747
5734 5739 5770 5782 5778 5768 5765 5755 5727 5717 5714 5724 5743 5745 5771 5802 5810 5816 5819 5821 5823 5822 5821 5818 5815 5810 5806 5801 5796 5791 5786 5782 5779 5775 5772 5770 5767 5763 5760 5758 5755 5752 5750 5749
5728 5737 5770 5782 5785 5774 5756 5749 5751 5728 5725 5723 5732 5751 5777 5801 5806 5811 5815 5818 5819 5821 5821 5819 5816 5811 5808 5803 5799 5794 5788 5783 5780 5777 5773 5769 5767 5764 5762 5759 5756 5753 5751 5749
5739 5736 5758 5773 5776 5770 5766 5750 5732 5721 5709 5713 5732 5742 5755 5783 5793 5802 5808 5812 5815 5817 5817 5817 5815 5811 5808 5804 5799 5794 5789 5785 5781 5777 5773 5770 5767 5765 5763 5760 5756 5753 5751 5749
5743 5732 5742 5755 5757 5752 5750 5743 5731 5718 5720 5709 5715 5736 5776 5784 5793 5797 5803 5809 5811 5813 5813 5813 5812 5810 5807 5803 5798 5793 5788 5783 5779 5776 5772 5769 5766 5764 5762 5759 5757 5754 5751 5748
5734 5720 5719 5738 5759 5766 5761 5747 5736 5724 5715 5713 5716 5737 5786 5789 5794 5798 5801 5806 5809 5810 5811 5810 5808 5806 5802 5798 5795 5791 5788 5782 5779 5775 5771 5767 5764 5761 5759 5757 5755 5752 5749 5747
5730 5715 5706 5717 5731 5749 5750 5745 5742 5730 5713 5705 5714 5741 5782 5786 5791 5796 5799 5802 5805 5805 5805 5804 5802 5800 5796 5794 5792 5788 5785 5780 5777 5773 5769 5765 5761 5758 5756 5754 5752 5749 5746 5744
5737 5713 5709 5708 5720 5736 5741 5741 5738 5732 5714 5711 5724 5745 5767 5777 5782 5788 5793 5797 5799 5800 5799 5798 5796 5795 5792 5790 5788 5784 5781 5778 5773 5769 5765 5761 5759 5756 5753 5750 5748 5745 5742 5739
5730 5713 5719 5726 5738 5741 5745 5743 5739 5740 5733 5728 5737 5744 5763 5774 5780 5786 5789 5791 5793 5793 5794 5793 5791 5790 5788 5785 5782 5780 5776 5773 5769 5764 5760 5757 5755 5752 5748 5746 5743 5741 5737 5735
5717 5713 5717 5724 5735 5739 5739 5742 5742 5744 5741 5743 5747 5750 5771 5776 5779 5781 5784 5787 5788 5788 5789 5789 5788 5786 5783 5781 5778 5775 5771 5768 5764 5759 5755 5753 5750 5747 5743 5739 5737 5734 5731 5728
5704 5706 5702 5704 5723 5730 5720 5736 5739 5742 5747 5747 5744 5758 5769 5770 5774 5779 5782 5784 5784 5786 5786 5785 5784 5782 5779 5777 5774 5770 5766 5762 5758 5753 5750 5747 5744 5740 5737 5734 5730 5727 5724 5721
5701 5696 5690 5693 5707 5696 5721 5746 5748 5746 5749 5753 5759 5765 5768 5773 5776 5780 5782 5782 5782 5783 5782 5781 5780 5778 5775 5773 5769 5766 5762 5757 5753 5748 5744 5741 5738 5734 5730 5727 5723 5720 5717 5714
5703 5696 5683 5680 5685 5699 5724 5740 5743 5740 5741 5753 5756 5762 5765 5769 5770 5772 5780 5782 5782 5783 5781 5779 5777 5774 5770 5767 5764 5760 5755 5751 5747 5742 5739 5735 5732 5728 5724 5720 5716 5713 5710 5707
5693 5695 5684 5678 5683 5684 5715 5741 5749 5743 5733 5753 5755 5757 5760 5762 5753 5764 5778 5779 5779 5779 5777 5774 5772 5768 5764 5760 5758 5753 5749 5745 5741 5737 5734 5730 5726 5722 5718 5713 5710 5706 5704 5700
5680 5679 5678 5677 5682 5694 5722 5737 5742 5721 5728 5752 5754 5756 5758 5759 5765 5773 5776 5775 5774 5773 5771 5770 5766 5762 5758 5755 5752 5747 5743 5739 5736 5732 5728 5724 5720 5715 5711 5707 5703 5700 5697 5694
5673 5672 5671 5671 5678 5690 5725 5730 5726 5729 5743 5749 5753 5756 5757 5760 5765 5767 5769 5768 5767 5766 5764 5763 5759 5754 5751 5750 5746 5741 5736 5733 5730 5726 5721 5716 5713 5709 5705 5701 5697 5694 5691 5687
5670 5677 5677 5682 5688 5706 5718 5725 5731 5735 5737 5744 5748 5753 5755 5756 5757 5759 5760 5759 5759 5758 5757 5755 5752 5747 5744 5742 5741 5735 5730 5727 5723 5718 5713 5709 5705 5701 5697 5694 5691 5687 5684 5680
5671 5676 5677 5683 5695 5705 5714 5721 5727 5732 5736 5742 5747 5750 5752 5752 5753 5752 5751 5751 5750 5750 5749 5747 5744 5739 5735 5734 5732 5729 5724 5720 5716 5710 5705 5701 5698 5693 5689 5686 5684 5681 5677 5674
5667 5672 5673 5679 5691 5700 5709 5715 5721 5728 5734 5738 5742 5745 5747 5747 5746 5745 5744 5745 5745 5743 5742 5740 5737 5733 5728 5726 5723 5721 5718 5714 5708 5703 5699 5695 5691 5686 5681 5677 5674 5672 5670 5667
5663 5667 5670 5675 5687 5690 5698 5709 5716 5721 5725 5729 5732 5735 5740 5742 5740 5739 5737 5737 5737 5736 5734 5732 5730 5726 5723 5719 5716 5713 5710 5707 5702 5697 5692 5688 5683 5679 5675 5671 5666 5663 5662 5660